Find Lemur-2 Starlight

NORAD ID: 66783 Int'l Des: 2025-276 Owner: SPIRE Country: US Constellation: spire operational
LEOCIRCULARRETROGRADESSO

实时位置

正在加载3D地球...

关于 Lemur-2 Starlight

正在加载描述...

即将过境

Passes for default location (London). Set your location on the main map for personalized predictions.

高度历史

Loading altitude history...

两行轨道根数

1 66783U 25276DY 26124.17395889 .00004402 00000-0 37091-3 0 9990
2 66783 97.5269 196.3283 0013343 281.4995 78.4730 14.98626752 23604
Epoch: May 4, 2026 • Age: 19 hours

当前状态

高度 577.9 km
速度 7.57 km/s
星下点 -34.75°S, 9.26°W
发射日期 Nov 28, 2025
运行时间 0.4 years
类型 other

技术详情

分类 Payload
质量 7.60 kg
干质量 7.60 kg
总质量 7.60 kg
长度 0.30 m
直径 0.10 m
跨度 1.00 m
形状 Box+ 2 pan
制造商 SPIREG
平台类型 Cubesat 3U
阶段状态 In Orbit
所有者/国家 SPIRE/US

Most Searched